When you browse on this site, cookies collect data to enhance your experience and personalize the content and advertising you see.
Visit our Privacy Policy to learn more. By continuing to use the site, you agree to this use of cookies and data.
  • In Spain
  • List of Countries
  • For 7 days
  • Water Temperature
  • Weather Map
  • Weather Widgets
  • user-avatar
    Login

    Hourly Weather Verbovka

    Today, 4 June, Thursday

    Time Temperature Precipitation Wind Pressure Humidity
    00:00 +9°C° 0 mm 1 mps 734 mmHg 97%
    01:00 +9°C° 0 mm 1 mps 734 mmHg 97%
    02:00 +8°C° 0 mm 1 mps 734 mmHg 97%
    03:00 +8°C° 0 mm 0 mps 734 mmHg 97%
    04:00 +8°C° 0 mm 0 mps 733 mmHg 97%
    05:00 +9°C° 0 mm 0 mps 733 mmHg 97%
    06:00 +10°C° 0 mm 0 mps 733 mmHg 93%
    07:00 +12°C° 0 mm 0 mps 733 mmHg 88%
    08:00 +14°C° 0 mm 1 mps 733 mmHg 84%
    09:00 +15°C° 0.3 mm 1 mps 733 mmHg 80%
    10:00 +16°C° 0.3 mm 1 mps 733 mmHg 75%
    11:00 +17°C° 0.3 mm 2 mps 732 mmHg 70%
    12:00 +17°C° 0.9 mm 3 mps 732 mmHg 74%
    13:00 +15°C° 0.9 mm 4 mps 733 mmHg 78%
    14:00 +15°C° 0.9 mm 5 mps 733 mmHg 83%
    15:00 +14°C° 0.4 mm 4 mps 733 mmHg 83%
    16:00 +14°C° 0.4 mm 3 mps 732 mmHg 84%
    17:00 +13°C° 0.4 mm 3 mps 732 mmHg 84%
    18:00 +12°C° 0 mm 3 mps 732 mmHg 87%
    19:00 +12°C° 0 mm 3 mps 732 mmHg 89%
    20:00 +11°C° 0 mm 3 mps 733 mmHg 92%
    21:00 +10°C° 0 mm 3 mps 733 mmHg 93%
    22:00 +9°C° 0 mm 3 mps 733 mmHg 93%
    23:00 +8°C° 0 mm 3 mps 733 mmHg 94%

    Tomorrow, 5 June, Friday

    Time Temperature Precipitation Wind Pressure Humidity
    00:00 +8°C° 0 mm 3 mps 733 mmHg 95%
    01:00 +8°C° 0 mm 3 mps 733 mmHg 95%
    02:00 +7°C° 0 mm 3 mps 733 mmHg 96%
    03:00 +8°C° 0 mm 3 mps 733 mmHg 96%
    04:00 +8°C° 0 mm 3 mps 733 mmHg 96%
    05:00 +8°C° 0 mm 3 mps 733 mmHg 96%
    06:00 +10°C° 0.1 mm 3 mps 733 mmHg 92%
    07:00 +11°C° 0.1 mm 4 mps 734 mmHg 89%
    08:00 +13°C° 0.1 mm 5 mps 734 mmHg 86%
    09:00 +13°C° 0.2 mm 4 mps 734 mmHg 85%
    10:00 +14°C° 0.2 mm 4 mps 734 mmHg 84%
    11:00 +14°C° 0.2 mm 4 mps 734 mmHg 83%
    12:00 +15°C° 0 mm 4 mps 734 mmHg 79%
    13:00 +17°C° 0 mm 3 mps 734 mmHg 75%
    14:00 +18°C° 0 mm 3 mps 734 mmHg 70%
    15:00 +18°C° 0 mm 3 mps 734 mmHg 70%
    16:00 +18°C° 0 mm 2 mps 734 mmHg 69%
    17:00 +18°C° 0 mm 2 mps 734 mmHg 68%
    18:00 +17°C° 0 mm 2 mps 735 mmHg 74%
    19:00 +15°C° 0 mm 2 mps 735 mmHg 80%
    20:00 +14°C° 0 mm 2 mps 735 mmHg 86%
    21:00 +13°C° 0 mm 2 mps 735 mmHg 89%
    22:00 +12°C° 0 mm 2 mps 736 mmHg 91%
    23:00 +11°C° 0 mm 3 mps 736 mmHg 93%

    Day after tomorrow, 6 June, Saturday

    Time Temperature Precipitation Wind Pressure Humidity
    00:00 +11°C° 0 mm 3 mps 736 mmHg 94%
    01:00 +11°C° 0 mm 3 mps 736 mmHg 95%
    02:00 +11°C° 0 mm 3 mps 736 mmHg 96%
    03:00 +12°C° 0 mm 3 mps 736 mmHg 96%
    04:00 +13°C° 0 mm 4 mps 736 mmHg 95%
    05:00 +13°C° 0 mm 4 mps 736 mmHg 95%
    06:00 +15°C° 0 mm 4 mps 736 mmHg 91%
    07:00 +18°C° 0 mm 4 mps 737 mmHg 87%
    08:00 +19°C° 0 mm 5 mps 737 mmHg 83%
    09:00 +20°C° 0.4 mm 5 mps 737 mmHg 81%
    10:00 +22°C° 0.4 mm 5 mps 737 mmHg 79%
    11:00 +23°C° 0.4 mm 5 mps 737 mmHg 76%
    12:00 +23°C° 0.8 mm 5 mps 737 mmHg 77%
    13:00 +23°C° 0.8 mm 5 mps 738 mmHg 77%
    14:00 +23°C° 0.8 mm 4 mps 738 mmHg 77%
    15:00 +23°C° 0.5 mm 4 mps 738 mmHg 80%
    16:00 +22°C° 0.5 mm 3 mps 738 mmHg 83%
    17:00 +22°C° 0.5 mm 3 mps 738 mmHg 86%
    18:00 +21°C° 0.5 mm 3 mps 738 mmHg 88%
    19:00 +20°C° 0.5 mm 2 mps 738 mmHg 89%
    20:00 +18°C° 0.5 mm 2 mps 739 mmHg 90%
    21:00 +18°C° 0 mm 2 mps 739 mmHg 91%
    22:00 +18°C° 0 mm 2 mps 739 mmHg 92%
    23:00 +17°C° 0 mm 2 mps 740 mmHg 93%

    7 June, Sunday

    Time Temperature Precipitation Wind Pressure Humidity
    00:00 +18°C° 0.3 mm 1 mps 740 mmHg 94%
    01:00 +18°C° 0.3 mm 1 mps 740 mmHg 95%
    02:00 +18°C° 0.3 mm 1 mps 740 mmHg 96%
    03:00 +18°C° 0.2 mm 1 mps 740 mmHg 96%
    04:00 +18°C° 0.2 mm 1 mps 741 mmHg 97%
    05:00 +18°C° 0.2 mm 1 mps 741 mmHg 97%
    06:00 +19°C° 0 mm 1 mps 741 mmHg 94%
    07:00 +20°C° 0 mm 1 mps 742 mmHg 91%
    08:00 +21°C° 0 mm 1 mps 742 mmHg 88%
    09:00 +22°C° 0.1 mm 1 mps 742 mmHg 83%
    10:00 +23°C° 0.1 mm 1 mps 743 mmHg 78%
    11:00 +24°C° 0.1 mm 1 mps 743 mmHg 73%
    12:00 +25°C° 0.1 mm 1 mps 743 mmHg 71%
    13:00 +25°C° 0.1 mm 1 mps 743 mmHg 69%
    14:00 +26°C° 0.1 mm 1 mps 743 mmHg 67%
    15:00 +25°C° 0.1 mm 1 mps 743 mmHg 69%
    16:00 +25°C° 0.1 mm 1 mps 743 mmHg 70%
    17:00 +25°C° 0.1 mm 1 mps 743 mmHg 72%
    18:00 +24°C° 0.4 mm 1 mps 743 mmHg 78%
    19:00 +23°C° 0.4 mm 2 mps 743 mmHg 84%
    20:00 +20°C° 0.4 mm 2 mps 743 mmHg 90%
    21:00 +19°C° 0.4 mm 2 mps 743 mmHg 91%
    22:00 +19°C° 0.4 mm 2 mps 743 mmHg 92%
    23:00 +18°C° 0.4 mm 2 mps 743 mmHg 94%

    8 June, Monday

    Time Temperature Precipitation Wind Pressure Humidity
    00:00 +17°C° 0 mm 2 mps 743 mmHg 94%
    01:00 +17°C° 0 mm 2 mps 743 mmHg 95%
    02:00 +17°C° 0 mm 2 mps 743 mmHg 96%
    03:00 +17°C° 0 mm 2 mps 743 mmHg 96%
    04:00 +17°C° 0 mm 2 mps 743 mmHg 96%
    05:00 +17°C° 0 mm 2 mps 743 mmHg 96%
    06:00 +19°C° 0 mm 3 mps 743 mmHg 92%
    07:00 +20°C° 0 mm 3 mps 743 mmHg 88%
    08:00 +21°C° 0 mm 3 mps 743 mmHg 84%
    09:00 +23°C° 0 mm 4 mps 743 mmHg 79%
    10:00 +25°C° 0 mm 4 mps 743 mmHg 75%
    11:00 +26°C° 0 mm 4 mps 743 mmHg 70%
    12:00 +26°C° 0.3 mm 4 mps 743 mmHg 69%
    13:00 +27°C° 0.3 mm 4 mps 743 mmHg 68%
    14:00 +27°C° 0.3 mm 4 mps 743 mmHg 67%
    15:00 +27°C° 0.2 mm 3 mps 742 mmHg 70%
    16:00 +27°C° 0.2 mm 3 mps 742 mmHg 72%
    17:00 +26°C° 0.2 mm 3 mps 742 mmHg 75%
    18:00 +25°C° 0.1 mm 3 mps 742 mmHg 80%
    19:00 +22°C° 0.1 mm 3 mps 742 mmHg 84%
    20:00 +21°C° 0.1 mm 3 mps 742 mmHg 88%
    21:00 +20°C° 0 mm 3 mps 742 mmHg 89%
    22:00 +19°C° 0 mm 3 mps 742 mmHg 91%
    23:00 +19°C° 0 mm 3 mps 742 mmHg 92%

    9 June, Tuesday

    Time Temperature Precipitation Wind Pressure Humidity
    00:00 +19°C° 0 mm 3 mps 742 mmHg 93%
    01:00 +19°C° 0 mm 4 mps 742 mmHg 93%
    02:00 +18°C° 0 mm 4 mps 742 mmHg 93%
    03:00 +19°C° 0 mm 4 mps 742 mmHg 93%
    04:00 +19°C° 0 mm 4 mps 742 mmHg 93%
    05:00 +19°C° 0 mm 4 mps 742 mmHg 92%
    06:00 +20°C° 0 mm 4 mps 742 mmHg 88%
    07:00 +22°C° 0 mm 5 mps 742 mmHg 85%
    08:00 +23°C° 0 mm 5 mps 742 mmHg 81%
    09:00 +25°C° 0.1 mm 5 mps 742 mmHg 76%
    10:00 +26°C° 0.1 mm 6 mps 742 mmHg 71%
    11:00 +27°C° 0.1 mm 6 mps 743 mmHg 66%
    12:00 +27°C° 0.8 mm 6 mps 742 mmHg 68%
    13:00 +27°C° 0.8 mm 5 mps 742 mmHg 70%
    14:00 +27°C° 0.8 mm 5 mps 742 mmHg 73%
    15:00 +27°C° 0.4 mm 4 mps 742 mmHg 75%
    16:00 +26°C° 0.4 mm 4 mps 742 mmHg 77%
    17:00 +26°C° 0.4 mm 4 mps 742 mmHg 79%
    18:00 +25°C° 0.1 mm 3 mps 742 mmHg 82%
    19:00 +24°C° 0.1 mm 3 mps 742 mmHg 85%
    20:00 +21°C° 0.1 mm 3 mps 742 mmHg 89%
    21:00 +21°C° 0 mm 3 mps 742 mmHg 90%
    22:00 +20°C° 0 mm 3 mps 742 mmHg 91%
    23:00 +19°C° 0 mm 3 mps 742 mmHg 93%
    Show more